Location: Worth Mountain WMA
(34.9569°N, 81.4819°W)
Time: 05:51:16
(UTC-04:00)

Amateur Radio Satellites - All Passes

Search period start: 31 October 2014 05:21
Search period end: 01 November 2014 05:21
Location: Worth Mountain WMA, 34.9569°N, 81.4819°W

Satellite Date Start Highest point End Downlink Frequencies (MHz)
Time Altitude Azimuth
AO-27 31 Oct 05:23:23 05:24:46 11° 298° (WNW) 05:26:09 436.795 MHz FM
Gurwin Techsat 1B 31 Oct 05:34:37 05:37:54 17° 295° (WNW) 05:41:10 435.225 FM
TMSAT-1 31 Oct 05:40:57 05:44:38 20° 294° (WNW) 05:48:20 436.925 FM
OPAL 31 Oct 05:52:19 05:57:27 83° 74° (ENE) 06:02:32 ?
STRAND 1 31 Oct 06:12:15 06:14:40 14° 63° (ENE) 06:17:06 ?
Hamsat 31 Oct 06:14:59 06:17:39 16° 94° (E) 06:20:19 145.90 MHz
Uosat F 31 Oct 06:23:06 06:27:58 51° 287° (WNW) 06:32:49 435.120 FM
JAS-2 31 Oct 06:42:41 06:50:33 69° 101° (E) 06:58:02 435.800 - 435.900 CW/SSB, 435.910 FM
Saudisat 1A 31 Oct 06:43:20 06:47:38 58° 302° (WNW) 06:51:58 436.775 MHz
PANSAT 31 Oct 06:50:53 06:54:18 30° 182° (S) 06:57:42 not established
AO-7 31 Oct 06:52:53 07:00:33 43° 295° (WNW) 07:08:15 29.400 - 29.500 MHz
RS-15 31 Oct 07:28:30 07:39:48 87° 243° (WSW) 07:51:37 29.354 - 29.394 USB, Beacon 29.352 USB
STRAND 1 31 Oct 07:48:10 07:53:15 65° 258° (WSW) 07:58:23 ?
Hamsat 31 Oct 07:49:50 07:53:38 34° 287° (WNW) 07:57:28 145.90 MHz
MaSat-1 31 Oct 08:15:58 08:18:02 24° 62° (ENE) 08:20:01 437.345 MHz
JAS-2 31 Oct 08:28:54 08:34:47 24° 298° (WNW) 08:40:32 435.800 - 435.900 CW/SSB, 435.910 FM
PANSAT 31 Oct 08:31:09 08:34:00 20° 195° (SSW) 08:36:50 not established
SO-67 31 Oct 08:53:46 08:57:00 38° 285° (WNW) 09:00:12 435.3500 MHz FM
HO-68 31 Oct 09:37:57 09:44:17 33° 98° (E) 09:50:34 435.675 MHz FM
RS-15 31 Oct 09:43:50 09:50:39 18° 260° (W) 09:57:40 29.354 - 29.394 USB, Beacon 29.352 USB
UKube-1 31 Oct 09:57:31 09:58:33 11° 92° (E) 09:59:35 145.840 MHz, 145.915 MHz
Oscar 11 31 Oct 10:30:17 10:33:58 27° 97° (E) 10:37:39 145.825 FM, Beacon 2401.500 USB
SO-50 31 Oct 10:32:56 10:35:22 15° 108° (ESE) 10:37:51 436.795 FM
ISS 31 Oct 10:38:26 10:41:44 72° 319° (NW) 10:45:03 145.800 FM
KITSAT 1 31 Oct 10:40:39 10:48:01 40° 108° (ESE) 10:55:23 435.175 FM
FUNcube-1 31 Oct 10:47:21 10:49:57 16° 94° (E) 10:52:32 145.950 - 145.970 MHz USB
Sapphire 31 Oct 11:13:40 11:16:58 16° 49° (NE) 11:20:16 437.095 MHz 1200 baud AX-25 AFSK
HO-68 31 Oct 11:25:21 11:31:59 42° 293° (WNW) 11:38:35 435.675 MHz FM
UKube-1 31 Oct 11:30:45 11:35:00 53° 286° (WNW) 11:39:14 145.840 MHz, 145.915 MHz
PCSat 31 Oct 11:34:32 11:39:01 26° 54° (NE) 11:43:27 145.825 MHz
ZACube-1 31 Oct 11:39:22 11:43:33 74° 102° (ESE) 11:47:41 437.345 MHz
Oscar 11 31 Oct 12:06:43 12:09:58 21° 291° (WNW) 12:13:12 145.825 FM, Beacon 2401.500 USB
SO-50 31 Oct 12:11:07 12:15:26 47° 303° (WNW) 12:19:54 436.795 FM
ISS 31 Oct 12:17:51 12:18:56 11° 335° (NNW) 12:20:01 145.800 FM
FUNcube-1 31 Oct 12:22:40 12:26:24 32° 288° (WNW) 12:30:04 145.950 - 145.970 MHz USB
KITSAT 1 31 Oct 12:35:48 12:43:18 41° 306° (NW) 12:50:52 435.175 FM
Oscar 19 31 Oct 12:45:40 12:45:56 10° 62° (ENE) 12:46:11 437.125 CW, 437.150 USB
JAS-1B 31 Oct 12:45:56 12:47:26 11° 60° (ENE) 12:48:56 435.800 - 435.900 CW/SSB
UOSAT-12 31 Oct 12:55:26 12:59:45 42° 114° (ESE) 13:04:10 437.025 FM, 437.400 FM
Sapphire 31 Oct 12:55:30 13:00:54 69° 247° (WSW) 13:06:16 437.095 MHz 1200 baud AX-25 AFSK
PCSat 31 Oct 13:17:29 13:22:30 39° 250° (WSW) 13:27:29 145.825 MHz
Oscar 16 31 Oct 13:28:04 13:32:29 30° 69° (ENE) 13:36:55 437.025 USB, Beacon 2401.1428
Uribyol 2 31 Oct 14:01:05 14:05:21 26° 68° (ENE) 14:09:38 436.500 FM
AO-Echo 31 Oct 14:03:26 14:07:49 32° 70° (ENE) 14:12:20 ?
ITAMSAT 1 31 Oct 14:08:50 14:13:16 29° 69° (ENE) 14:17:43 435.822 SSB
Oscar 19 31 Oct 14:19:22 14:24:31 85° 256° (WSW) 14:29:40 437.125 CW, 437.150 USB
JAS-1B 31 Oct 14:31:30 14:37:22 78° 257° (WSW) 14:43:03 435.800 - 435.900 CW/SSB
UOSAT-12 31 Oct 14:36:36 14:40:04 20° 310° (NW) 14:43:34 437.025 FM, 437.400 FM
AO-27 31 Oct 14:55:31 15:00:44 87° 76° (ENE) 15:05:59 436.795 MHz FM
Oscar 16 31 Oct 15:07:25 15:11:45 27° 264° (W) 15:16:06 437.025 USB, Beacon 2401.1428
Gurwin Techsat 1B 31 Oct 15:10:59 15:16:12 62° 74° (ENE) 15:21:27 435.225 FM
Saudisat 1A 31 Oct 15:13:03 15:17:15 41° 56° (ENE) 15:21:26 436.775 MHz
TMSAT-1 31 Oct 15:17:28 15:22:35 52° 73° (ENE) 15:27:43 436.925 FM
Uribyol 2 31 Oct 15:40:00 15:44:38 32° 262° (W) 15:49:19 436.500 FM
AO-Echo 31 Oct 15:42:36 15:46:34 24° 265° (W) 15:50:40 ?
ITAMSAT 1 31 Oct 15:48:10 15:52:39 29° 263° (W) 15:57:09 435.822 SSB
AO-7 31 Oct 15:55:47 16:03:15 40° 64° (ENE) 16:10:44 29.400 - 29.500 MHz
Uosat F 31 Oct 15:56:33 15:59:33 16° 65° (ENE) 16:02:32 435.120 FM
JAS-2 31 Oct 16:52:48 16:57:15 20° 61° (ENE) 17:02:03 435.800 - 435.900 CW/SSB, 435.910 FM
Saudisat 1A 31 Oct 16:53:42 16:56:27 16° 251° (WSW) 16:59:12 436.775 MHz
Gurwin Techsat 1B 31 Oct 16:54:00 16:56:31 13° 268° (W) 16:59:03 435.225 FM
TMSAT-1 31 Oct 16:59:31 17:02:44 16° 267° (W) 17:05:59 436.925 FM
ISS 31 Oct 17:09:58 17:12:56 29° 36° (NE) 17:15:54 145.800 FM
Uosat F 31 Oct 17:32:58 17:37:51 52° 259° (W) 17:42:46 435.120 FM
AO-7 31 Oct 17:48:13 17:55:53 42° 260° (W) 18:03:36 29.400 - 29.500 MHz
OPAL 31 Oct 18:06:06 18:10:19 28° 99° (E) 18:14:30 ?
JAS-2 31 Oct 18:35:27 18:41:29 63° 260° (W) 18:48:24 435.800 - 435.900 CW/SSB, 435.910 FM
KITSAT 1 31 Oct 18:39:07 18:42:33 13° 36° (NE) 18:45:57 435.175 FM
Hamsat 31 Oct 18:39:13 18:43:24 74° 259° (WSW) 18:47:35 145.90 MHz
ISS 31 Oct 18:46:50 18:49:31 23° 230° (SW) 18:52:11 145.800 FM
SO-67 31 Oct 19:22:53 19:25:59 33° 74° (ENE) 19:29:07 435.3500 MHz FM
RS-15 31 Oct 19:41:25 19:47:34 17° 100° (E) 19:53:38 29.354 - 29.394 USB, Beacon 29.352 USB
OPAL 31 Oct 19:44:55 19:49:05 28° 293° (WNW) 19:53:15 ?
STRAND 1 31 Oct 20:02:10 20:07:14 56° 101° (E) 20:12:15 ?
HO-68 31 Oct 20:04:57 20:09:29 18° 59° (ENE) 20:14:01 435.675 MHz FM
AO-40 31 Oct 20:19:23 22:21:15 19° 108° (ESE) 23:27:07 Beacon 2401.320
KITSAT 1 31 Oct 20:31:56 20:39:52 57° 58° (ENE) 20:47:45 435.175 FM
SO-50 31 Oct 20:45:28 20:50:17 61° 59° (ENE) 20:55:07 436.795 FM
Oscar 11 31 Oct 21:23:20 21:25:49 15° 67° (ENE) 21:28:19 145.825 FM, Beacon 2401.500 USB
UOSAT-12 31 Oct 21:28:57 21:32:04 17° 48° (NE) 21:35:09 437.025 FM, 437.400 FM
FUNcube-1 31 Oct 21:42:40 21:43:27 10° 65° (ENE) 21:44:14 145.950 - 145.970 MHz USB
STRAND 1 31 Oct 21:42:59 21:45:54 15° 296° (WNW) 21:48:48 ?
RS-15 31 Oct 21:47:11 21:58:15 87° 117° (ESE) 22:09:13 29.354 - 29.394 USB, Beacon 29.352 USB
MaSat-1 31 Oct 21:47:24 21:50:30 22° 108° (ESE) 21:53:25 437.345 MHz
HO-68 31 Oct 21:49:12 21:56:21 78° 255° (WSW) 22:03:34 435.675 MHz FM
UKube-1 31 Oct 22:22:30 22:26:50 84° 76° (ENE) 22:31:13 145.840 MHz, 145.915 MHz
SO-50 31 Oct 22:28:02 22:30:19 13° 253° (WSW) 22:32:35 436.795 FM
KITSAT 1 31 Oct 22:28:13 22:34:44 28° 255° (WSW) 22:41:15 435.175 FM
ZACube-1 31 Oct 22:32:17 22:36:31 40° 73° (ENE) 22:40:42 437.345 MHz
Oscar 11 31 Oct 22:57:36 23:01:38 39° 261° (W) 23:05:42 145.825 FM, Beacon 2401.500 USB
UOSAT-12 31 Oct 23:07:57 23:12:31 52° 245° (WSW) 23:16:59 437.025 FM, 437.400 FM
FUNcube-1 31 Oct 23:14:45 23:19:16 65° 259° (W) 23:23:43 145.950 - 145.970 MHz USB
MaSat-1 31 Oct 23:22:44 23:25:47 22° 298° (WNW) 23:28:37 437.345 MHz
RS-15 01 Nov 00:03:17 00:12:02 27° 321° (NW) 00:20:51 29.354 - 29.394 USB, Beacon 29.352 USB
ZACube-1 01 Nov 00:10:16 00:13:00 16° 266° (W) 00:15:44 437.345 MHz
Oscar 16 01 Nov 01:44:33 01:46:56 13° 92° (E) 01:49:18 437.025 USB, Beacon 2401.1428
Sapphire 01 Nov 01:51:49 01:56:07 25° 107° (ESE) 02:00:26 437.095 MHz 1200 baud AX-25 AFSK
PCSat 01 Nov 02:12:29 02:17:34 43° 110° (ESE) 02:22:40 145.825 MHz
AO-Echo 01 Nov 02:15:16 02:18:06 15° 92° (E) 02:20:55 ?
JAS-1B 01 Nov 02:16:46 02:23:43 39° 99° (E) 02:31:46 435.800 - 435.900 CW/SSB
Uribyol 2 01 Nov 02:19:15 02:20:46 11° 91° (E) 02:22:16 436.500 FM
ITAMSAT 1 01 Nov 02:26:36 02:28:56 13° 92° (E) 02:31:16 435.822 SSB
RS-15 01 Nov 02:27:15 02:30:15 11° 357° (N) 02:33:17 29.354 - 29.394 USB, Beacon 29.352 USB
Oscar 19 01 Nov 02:34:29 02:39:23 44° 99° (E) 02:44:15 437.125 CW, 437.150 USB
PANSAT 01 Nov 03:08:13 03:09:24 11° 158° (SSE) 03:10:34 not established
AO-27 01 Nov 03:12:13 03:17:08 41° 99° (E) 03:22:00 436.795 MHz FM
Oscar 16 01 Nov 03:21:34 03:26:36 59° 286° (WNW) 03:31:37 437.025 USB, Beacon 2401.1428
Gurwin Techsat 1B 01 Nov 03:30:57 03:35:41 32° 97° (E) 03:40:23 435.225 FM
Sapphire 01 Nov 03:34:17 03:39:16 38° 302° (WNW) 03:44:19 437.095 MHz 1200 baud AX-25 AFSK
TMSAT-1 01 Nov 03:37:10 03:41:37 27° 96° (E) 03:46:02 436.925 FM
AO-Echo 01 Nov 03:51:58 03:57:11 58° 286° (WNW) 04:02:19 ?
Uribyol 2 01 Nov 03:55:29 04:00:40 70° 285° (WNW) 04:05:47 436.500 FM
PCSat 01 Nov 03:56:50 04:01:07 24° 307° (NW) 04:05:26 145.825 MHz
ITAMSAT 1 01 Nov 04:03:38 04:08:47 62° 286° (WNW) 04:13:53 435.822 SSB
AO-7 01 Nov 04:03:43 04:07:15 13° 91° (E) 04:10:46 29.400 - 29.500 MHz
JAS-1B 01 Nov 04:07:25 04:14:09 41° 290° (WNW) 04:22:01 435.800 - 435.900 CW/SSB
Oscar 19 01 Nov 04:14:51 04:18:21 19° 294° (WNW) 04:21:50 437.125 CW, 437.150 USB
RS-15 01 Nov 04:41:05 04:49:09 22° 34° (NE) 04:57:23 29.354 - 29.394 USB, Beacon 29.352 USB
PANSAT 01 Nov 04:45:47 04:48:58 25° 170° (S) 04:52:10 not established
AO-27 01 Nov 04:52:29 04:56:19 21° 294° (WNW) 05:00:09 436.795 MHz FM
Gurwin Techsat 1B 01 Nov 05:11:05 05:15:29 27° 292° (WNW) 05:19:51 435.225 FM
